Farmingdale, NY

2:42 PM EST on February 23, 2017 (GMT -0500)
Republic

Weather History for KFRG - April, 2013

Change the Weather History Date:

Wednesday, April 24, 2013

  Actual Average Record
Temperature  
Mean Temperature 50 °F -  
Max Temperature 59 °F 59 °F 75 °F (2001)
Min Temperature 42 °F 42 °F 35 °F (2002)
Degree Days  
Heating Degree Days 14    
Moisture  
Dew Point 44 °F    
Average Humidity 83    
Maximum Humidity 100    
Minimum Humidity 58    
Precipitation  
Precipitation 0.00 in - - ()
Sea Level Pressure  
Sea Level Pressure 29.97 in    
Wind  
Wind Speed 11 mph (SW)    
Max Wind Speed 18 mph    
Max Gust Speed 29 mph    
Visibility 6 miles    
Events      
Averages and records for this station are not official NWS values.
T = Trace of Precipitation, MM = Missing Value Source: NWS Daily Summary

Daily Weather History Graph

Daily Weather History Graph

Search for Another Location

Airport or City:

Trip Planner

Search our weather history database for the weather conditions in past years. The results will help you decide how hot, cold, wet, or windy it might be!

Date:

Astronomy

Apr. 24, 2013 Rise Set
Actual Time 6:01 AM EDT 7:42 PM EDT
Civil Twilight 5:32 AM EDT 8:11 PM EDT
Nautical Twilight 4:57 AM EDT 8:47 PM EDT
Astronomical Twilight 4:19 AM EDT 9:25 PM EDT
Moon 6:42 PM EDT (4/24) 5:03 AM EDT (4/24)
Length of Visible Light 14h 39m
Length of Day
13h 41m
Waxing Gibbous, 98% of the Moon is Illuminated
Apr 24
Waxing Gibbous
Apr 25
Full
May 2
Last Quarter
May 9
New
May 18
First Quarter

Hourly Weather History & Observations

Time (EDT) Temp. Windchill Dew Point Humidity Pressure Visibility Wind Dir Wind Speed Gust Speed Precip Events Conditions
12:53 AM 44.1 °F 40.1 °F 37.9 °F 79% 30.08 in 10.0 mi NNW 6.9 mph - N/A   Clear
1:53 AM 44.1 °F 39.0 °F 37.9 °F 79% 30.05 in 10.0 mi North 9.2 mph - N/A   Clear
2:53 AM 44.1 °F 39.5 °F 37.9 °F 79% 30.05 in 10.0 mi NNW 8.1 mph - N/A   Clear
3:53 AM 43.0 °F 38.8 °F 37.9 °F 82% 30.04 in 10.0 mi NNW 6.9 mph - N/A   Clear
4:53 AM 42.1 °F 38.4 °F 37.9 °F 85% 30.04 in 10.0 mi NW 5.8 mph - N/A   Clear
6:53 AM 43.0 °F 39.5 °F 37.9 °F 82% 30.06 in 10.0 mi NW 5.8 mph - N/A   Clear
7:00 AM 42.8 °F 39.3 °F 39.2 °F 87% 30.07 in 10.0 mi NW 5.8 mph - N/A   Partly Cloudy
7:53 AM 46.9 °F - 39.0 °F 74% 30.07 in 10.0 mi NNW 6.9 mph - N/A   Clear
8:53 AM 51.1 °F - 41.0 °F 68% 30.05 in 10.0 mi WNW 4.6 mph - N/A   Clear
9:53 AM 55.9 °F - 42.1 °F 60% 30.05 in 10.0 mi West 8.1 mph - N/A   Clear
10:53 AM 57.9 °F - 44.1 °F 60% 30.03 in 10.0 mi South 10.4 mph - N/A   Clear
11:53 AM 59.0 °F - 44.1 °F 58% 30.01 in 10.0 mi SSW 12.7 mph - N/A   Clear
12:53 PM 57.0 °F - 44.1 °F 62% 29.98 in 10.0 mi SSW 15.0 mph - N/A   Clear
1:53 PM 55.9 °F - 45.0 °F 67% 29.96 in 10.0 mi SSW 16.1 mph - N/A   Clear
2:53 PM 55.9 °F - 46.9 °F 72% 29.95 in 10.0 mi South 17.3 mph - N/A   Clear
3:53 PM 53.1 °F - 46.0 °F 77% 29.92 in 10.0 mi South 15.0 mph - N/A   Clear
4:30 PM 50.0 °F - 44.6 °F 82% 29.92 in 9.0 mi SSW 18.4 mph - N/A   Mostly Cloudy
4:40 PM 50.0 °F - 46.4 °F 87% 29.93 in 2.0 mi SSW 17.3 mph 21.9 mph N/A   Overcast
4:53 PM 50.0 °F - 46.0 °F 86% 29.93 in 2.5 mi SSW 12.7 mph - N/A   Overcast
5:26 PM 48.2 °F - 46.4 °F 93% 29.92 in 2.5 mi South 16.1 mph - N/A   Overcast
5:41 PM 48.2 °F - 46.4 °F 93% 29.92 in 0.8 mi SSW 16.1 mph - N/A   Overcast
5:53 PM 48.0 °F - 46.0 °F 93% 29.92 in 1.0 mi SSW 12.7 mph 23.0 mph N/A   Overcast
6:53 PM 46.9 °F - 46.0 °F 97% 29.89 in 1.0 mi SSW 16.1 mph 25.3 mph N/A   Overcast
7:33 PM 46.4 °F 39.5 °F 46.4 °F 100% 29.89 in 0.8 mi SSW 17.3 mph 28.8 mph N/A   Overcast
7:53 PM 48.0 °F - 46.9 °F 96% 29.89 in 0.5 mi SSW 18.4 mph 26.5 mph N/A   Overcast
8:30 PM 48.2 °F - 46.4 °F 93% 29.91 in 1.0 mi SSW 15.0 mph 24.2 mph N/A   Overcast
8:53 PM 48.0 °F - 46.9 °F 96% 29.94 in 1.0 mi SW 13.8 mph - N/A   Overcast
9:53 PM 48.9 °F - 48.0 °F 97% 29.93 in 1.0 mi SSW 13.8 mph - N/A   Overcast
10:53 PM 50.0 °F - 48.0 °F 93% 29.92 in 1.5 mi SSW 13.8 mph 24.2 mph N/A   Overcast
10:56 PM 50.0 °F - 48.2 °F 94% 29.91 in 7.0 mi SSW 15.0 mph 24.2 mph N/A   Overcast
11:53 PM 50.0 °F - 48.0 °F 93% 29.91 in 7.0 mi SSW 13.8 mph - N/A   Overcast